Terminal Aerodrome Forecast
Issued by NWS Central Illinois

Home | Current Version | Previous Version | Text Only | Print | Product List | Glossary On
Versions: 1 2 3 4 5 6 7 8 9 10 11 12 13 14 15 16 17 18 19 20
000
FTUS43 KILX 210200 AAA
TAFSPI
TAF AMD
KSPI 210247Z 2103/2124 23007KT P6SM VCTS SCT040CB
      TEMPO 2103/2104 4SM TSRA BKN030CB
     FM210500 26006KT 6SM BR SCT045
     FM211200 31010KT P6SM SCT035
     FM211500 32014G22KT P6SM SCT040=

USA.gov is the U.S. government's official web portal to all federal, state and local government web resources and services.